Regional Weather Roundup
Issued by NWS Bismarck, ND

Home | Current Version | Previous Version | Text Only | Print | Product List | Glossary On
Versions: 1 2 3 4 5 6 7 8 9 10 11 12 13 14 15 16 17 18 19 20 21 22 23 24 25 26 27 28 29 30 31 32 33 34 35 36 37 38 39 40 41 42 43 44 45 46 47 48 49 50
000
ASUS43 KBIS 302359
RWRBIS

NWR BROADCAST TEXT
NATIONAL WEATHER SERVICE BISMARCK ND
700 PM CDT THU OCT 30 2014

NOTE: "FAIR" INDICATES FEW OR NO CLOUDS BELOW 12,000 FEET WITH NO
SIGNIFICANT WEATHER AND/OR OBSTRUCTIONS TO VISIBILITY.


CITY           SKY/WX    TMP DP  RH WIND       PRES   REMARKS
WILLISTON      CLOUDY    36  29  75 E8        30.49R
MINOT          CLEAR     25  19  78 CALM      30.52R
MINOT AFB      NOT AVBL
BISMARCK       CLOUDY    35  28  75 NE9       30.51R
DICKINSON      NOT AVBL
GARRISON         N/A     31  24  75 NE7       30.51R
HETTINGER ARPT CLOUDY    35  29  78 E7        30.46R
JAMESTOWN      NOT AVBL
BEACH            N/A     36  32  87 E10       30.44S
CARRINGTON     FAIR      30  19  64 N8        30.49R
HARVEY         FAIR      27  21  80 NW8       30.50R WCI  18
HAZEN          CLOUDY    32  27  80 N7        30.53R
MANDAN         CLOUDY    32  28  86 NE8       30.51R
OAKES            N/A     32  25  74 N10       30.47R
$$

CITY           SKY/WX    TMP DP  RH WIND       PRES   REMARKS
GRAND FORKS    PTCLDY    34  16  47 N15       30.47R
GRAND FORKS AF NOT AVBL
DEVILS LAKE    CLEAR     30  14  51 N8        30.48R
FARGO          CLEAR     33  22  63 N13       30.44R
CANDO          FAIR      28  18  64 N7        30.51R
CAVALIER       FAIR      32  18  55 N13       30.51R
GRAFTON        FAIR      32  18  55 N10       30.50R
GWINNER        MOCLDY    34  23  64 N13       30.47R
$$

CITY           SKY/WX    TMP DP  RH WIND       PRES   REMARKS
ABERDEEN       CLOUDY    35  26  69 N21G29    30.46R
MOBRIDGE       CLOUDY    37  30  75 N13       30.46R
BUFFALO          N/A     37  30  75 E13       30.36R
RAPID CITY     CLEAR     39  31  72 NE7       30.41R
GLASGOW        CLOUDY    35  29  78 E15G23    30.40S
SIDNEY         CLOUDY    39  30  70 E12       30.48S
WOLF POINT     CLOUDY    38  31  76 SE8       30.45R
GLENDIVE       CLOUDY    36  30  80 E10       30.45R
MILES CITY     CLEAR     41  31  67 NE14      30.37R
BAKER          CLOUDY    36  30  79 E12       30.42S
$$

CITY           SKY/WX    TMP DP  RH WIND       PRES   REMARKS
BILLINGS       PTCLDY    54  30  40 E9        30.26S
GREAT FALLS    MOCLDY    55  33  43 E10       30.12F
$$




USA.gov is the U.S. government's official web portal to all federal, state and local government web resources and services.